| time (UTC) | temp F | wind direction | speed knots | gust knots | rain 1hr in | rain 24hr in | rain mn in | humidity % | barometer mb |
| 20260505022958 | 74 | 93 | 1.7 | 1.7 | 0.00 | 0.00 | 0.00 | 64 | 1003.4 |
| 20260505022455 | 74 | 92 | 0.9 | 0.9 | 0.00 | 0.00 | 0.00 | 64 | 1003.0 |
| 20260505021952 | 74 | 94 | 1.7 | 1.7 | 0.00 | 0.00 | 0.00 | 64 | 1003.1 |
| 20260505021449 | 74 | 132 | 0.0 | 0.9 | 0.00 | 0.00 | 0.00 | 64 | 1003.4 |
| 20260505020944 | 74 | 84 | 0.0 | 0.9 | 0.00 | 0.00 | 0.00 | 64 | 1003.3 |
| 20260505020440 | 74 | 111 | 0.9 | 0.9 | 0.00 | 0.00 | 0.00 | 63 | 1003.6 |
| 20260505015937 | 74 | 119 | 0.0 | 0.0 | 0.00 | 0.00 | 0.00 | 63 | 1003.6 |
| 20260505015434 | 74 | 123 | 0.0 | 0.0 | 0.00 | 0.00 | 0.00 | 63 | 1003.7 |
| 20260505014931 | 74 | 149 | 0.0 | 0.0 | 0.00 | 0.00 | 0.00 | 62 | 1003.6 |
| 20260505014428 | 75 | 130 | 0.0 | 0.0 | 0.00 | 0.00 | 0.00 | 62 | 1003.3 |
| 20260505013925 | 75 | 124 | 0.0 | 0.0 | 0.00 | 0.00 | 0.00 | 62 | 1003.3 |
| 20260505013422 | 75 | 144 | 0.0 | 0.0 | 0.00 | 0.00 | 0.00 | 61 | 1002.7 |
| 20260505012920 | 75 | 121 | 0.0 | 0.0 | 0.00 | 0.00 | 0.00 | 60 | 1002.9 |
| 20260505012418 | 75 | 107 | 0.0 | 0.0 | 0.00 | 0.00 | 0.00 | 59 | 1002.9 |
| 20260505011914 | 75 | 123 | 0.0 | 0.0 | 0.00 | 0.00 | 0.00 | 58 | 1002.6 |
| 20260505011410 | 75 | 117 | 0.0 | 0.9 | 0.00 | 0.00 | 0.00 | 58 | 1002.8 |
| 20260505010907 | 76 | 116 | 0.0 | 0.0 | 0.00 | 0.00 | 0.00 | 58 | 1002.4 |
| 20260505010403 | 76 | 122 | 0.0 | 0.0 | 0.00 | 0.00 | 0.00 | 57 | 1002.7 |
| 20260505005859 | 76 | 133 | 0.0 | 0.0 | 0.00 | 0.00 | 0.00 | 57 | 1002.3 |
| 20260505005356 | 76 | 124 | 0.0 | 0.0 | 0.00 | 0.00 | 0.00 | 56 | 1002.7 |
| 20260505004854 | 77 | 127 | 0.0 | 0.0 | 0.00 | 0.00 | 0.00 | 55 | 1002.4 |
| 20260505004350 | 77 | 122 | 0.0 | 0.0 | 0.00 | 0.00 | 0.00 | 55 | 1002.3 |
| 20260505003847 | 77 | 129 | 0.0 | 0.9 | 0.00 | 0.00 | 0.00 | 54 | 1002.4 |
| 20260505003344 | 77 | 131 | 0.9 | 0.9 | 0.00 | 0.00 | 0.00 | 53 | 1002.5 |
| 20260505002840 | 78 | 121 | 0.0 | 0.0 | 0.00 | 0.00 | 0.00 | 53 | 1002.6 |
| 20260505002337 | 78 | 122 | 0.0 | 0.0 | 0.00 | 0.00 | 0.00 | 52 | 1002.5 |
| 20260505001836 | 78 | 128 | 0.0 | 0.9 | 0.00 | 0.00 | 0.00 | 52 | 1002.7 |
| 20260505001332 | 79 | 141 | 0.0 | 0.0 | 0.00 | 0.00 | 0.00 | 51 | 1002.7 |
| 20260505000829 | 79 | 115 | 0.0 | 0.0 | 0.00 | 0.00 | 0.00 | 51 | 1002.7 |
| 20260505000327 | 80 | 121 | 0.0 | 0.0 | 0.00 | 0.00 | 0.00 | 50 | 1002.6 |
| 20260504235824 | 80 | 115 | 2.6 | 5.2 | 0.00 | 0.00 | 0.00 | 49 | 1002.8 |
| 20260504235321 | 80 | 121 | 0.9 | 1.7 | 0.00 | 0.00 | 0.00 | 48 | 1002.8 |
| 20260504234817 | 80 | 113 | 0.0 | 0.9 | 0.00 | 0.00 | 0.00 | 49 | 1002.6 |
| 20260504234315 | 80 | 166 | 0.9 | 1.7 | 0.00 | 0.00 | 0.00 | 48 | 1002.8 |
| 20260504233811 | 80 | 125 | 0.9 | 1.7 | 0.00 | 0.00 | 0.00 | 48 | 1002.7 |
| 20260504233307 | 80 | 121 | 0.9 | 0.9 | 0.00 | 0.00 | 0.00 | 48 | 1002.8 |
| 20260504232804 | 80 | 117 | 0.0 | 0.9 | 0.00 | 0.00 | 0.00 | 48 | 1002.9 |
| 20260504232303 | 81 | 112 | 2.6 | 5.2 | 0.00 | 0.00 | 0.00 | 47 | 1003.0 |
| 20260504231758 | 81 | 110 | 2.6 | 4.3 | 0.00 | 0.00 | 0.00 | 47 | 1002.9 |
| 20260504231254 | 82 | 96 | 0.0 | 0.9 | 0.00 | 0.00 | 0.00 | 47 | 1002.7 |
| 20260504230750 | 82 | 112 | 0.9 | 0.9 | 0.00 | 0.00 | 0.00 | 46 | 1003.0 |
| 20260504230249 | 83 | 142 | 0.9 | 0.9 | 0.00 | 0.00 | 0.00 | 45 | 1002.7 |
| 20260504225747 | 83 | 110 | 2.6 | 4.3 | 0.00 | 0.00 | 0.00 | 45 | 1002.6 |
| 20260504225243 | 84 | 262 | 3.5 | 7.0 | 0.00 | 0.00 | 0.00 | 45 | 1002.8 |
| 20260504224740 | 84 | 127 | 1.7 | 1.7 | 0.00 | 0.00 | 0.00 | 45 | 1002.8 |
| 20260504224237 | 84 | 117 | 3.5 | 7.8 | 0.00 | 0.00 | 0.00 | 43 | 1002.8 |
| 20260504223733 | 85 | 114 | 0.0 | 0.9 | 0.00 | 0.00 | 0.00 | 44 | 1002.7 |
| 20260504223229 | 85 | 105 | 0.9 | 1.7 | 0.00 | 0.00 | 0.00 | 44 | 1002.6 |
| 20260504222727 | 85 | 117 | 1.7 | 2.6 | 0.00 | 0.00 | 0.00 | 43 | 1002.8 |
| 20260504222223 | 86 | 126 | 0.9 | 0.9 | 0.00 | 0.00 | 0.00 | 43 | 1002.8 |
| 20260504221721 | 86 | 119 | 0.9 | 0.9 | 0.00 | 0.00 | 0.00 | 43 | 1002.7 |
| 20260504221218 | 85 | 148 | 0.9 | 0.9 | 0.00 | 0.00 | 0.00 | 43 | 1002.8 |
| 20260504220714 | 85 | 40 | 0.9 | 0.9 | 0.00 | 0.00 | 0.00 | 43 | 1002.7 |
| 20260504220212 | 86 | 112 | 1.7 | 2.6 | 0.00 | 0.00 | 0.00 | 43 | 1002.9 |
| 20260504215708 | 86 | 110 | 1.7 | 2.6 | 0.00 | 0.00 | 0.00 | 42 | 1002.9 |
| 20260504215206 | 87 | 94 | 2.6 | 4.3 | 0.00 | 0.00 | 0.00 | 41 | 1003.0 |
| 20260504214701 | 87 | 37 | 0.9 | 1.7 | 0.00 | 0.00 | 0.00 | 41 | 1002.9 |
| 20260504214158 | 87 | 116 | 0.0 | 0.0 | 0.00 | 0.00 | 0.00 | 40 | 1003.1 |
| 20260504213655 | 86 | 100 | 1.7 | 2.6 | 0.00 | 0.00 | 0.00 | 41 | 1003.0 |
| 20260504213151 | 87 | 98 | 3.5 | 6.1 | 0.00 | 0.00 | 0.00 | 40 | 1003.1 |
| 20260504212648 | 87 | 131 | 0.0 | 0.9 | 0.00 | 0.00 | 0.00 | 41 | 1003.3 |
| 20260504212144 | 87 | 91 | 1.7 | 1.7 | 0.00 | 0.00 | 0.00 | 40 | 1002.9 |
| 20260504211642 | 87 | 135 | 0.9 | 0.9 | 0.00 | 0.00 | 0.00 | 40 | 1003.1 |
| 20260504211138 | 87 | 138 | 1.7 | 4.3 | 0.00 | 0.00 | 0.00 | 40 | 1003.2 |
| 20260504210636 | 88 | 183 | 3.5 | 5.2 | 0.00 | 0.00 | 0.00 | 35 | 1003.1 |
| 20260504210132 | 88 | 155 | 4.3 | 6.1 | 0.00 | 0.00 | 0.00 | 34 | 1003.3 |
| 20260504205630 | 87 | 160 | 2.6 | 2.6 | 0.00 | 0.00 | 0.00 | 35 | 1003.1 |
| 20260504205127 | 88 | 189 | 3.5 | 5.2 | 0.00 | 0.00 | 0.00 | 34 | 1003.4 |
| 20260504204626 | 89 | 150 | 2.6 | 5.2 | 0.00 | 0.00 | 0.00 | 34 | 1003.6 |
| 20260504204124 | 89 | 118 | 0.9 | 0.9 | 0.00 | 0.00 | 0.00 | 36 | 1003.7 |
| 20260504203622 | 88 | 191 | 2.6 | 4.3 | 0.00 | 0.00 | 0.00 | 35 | 1003.3 |
| 20260504203119 | 89 | 191 | 7.0 | 8.7 | 0.00 | 0.00 | 0.00 | 34 | 1003.6 |
| 20260504202614 | 90 | 151 | 0.0 | 0.0 | 0.00 | 0.00 | 0.00 | 35 | 1003.6 |
| 20260504202111 | 90 | 168 | 0.0 | 0.0 | 0.00 | 0.00 | 0.00 | 35 | 1003.7 |
| 20260504201608 | 89 | 162 | 0.0 | 0.9 | 0.00 | 0.00 | 0.00 | 33 | 1003.5 |
| 20260504201106 | 88 | 239 | 4.3 | 6.1 | 0.00 | 0.00 | 0.00 | 34 | 1003.8 |
| 20260504200603 | 88 | 188 | 0.9 | 1.7 | 0.00 | 0.00 | 0.00 | 35 | 1003.8 |
| 20260504200059 | 88 | 195 | 1.7 | 2.6 | 0.00 | 0.00 | 0.00 | 35 | 1003.9 |
| 20260504195555 | 87 | 147 | 0.9 | 0.9 | 0.00 | 0.00 | 0.00 | 35 | 1003.9 |
| 20260504195051 | 87 | 121 | 0.0 | 0.9 | 0.00 | 0.00 | 0.00 | 37 | 1004.5 |
| 20260504194548 | 88 | 155 | 0.0 | 0.0 | 0.00 | 0.00 | 0.00 | 36 | 1004.2 |
| 20260504194043 | 87 | 221 | 2.6 | 4.3 | 0.00 | 0.00 | 0.00 | 35 | 1004.2 |
| 20260504193540 | 88 | 199 | 0.9 | 1.7 | 0.00 | 0.00 | 0.00 | 36 | 1004.7 |
| 20260504193039 | 88 | 157 | 1.7 | 1.7 | 0.00 | 0.00 | 0.00 | 34 | 1004.3 |
| 20260504192537 | 88 | 134 | 0.0 | 0.0 | 0.00 | 0.00 | 0.00 | 37 | 1004.8 |
| 20260504192035 | 87 | 123 | 1.7 | 1.7 | 0.00 | 0.00 | 0.00 | 37 | 1004.7 |
| 20260504191533 | 87 | 131 | 0.0 | 0.0 | 0.00 | 0.00 | 0.00 | 38 | 1004.8 |
| 20260504191028 | 86 | 146 | 0.9 | 0.9 | 0.00 | 0.00 | 0.00 | 37 | 1004.9 |
| 20260504190525 | 86 | 182 | 2.6 | 2.6 | 0.00 | 0.00 | 0.00 | 36 | 1004.7 |
| 20260504190021 | 86 | 174 | 1.7 | 1.7 | 0.00 | 0.00 | 0.00 | 37 | 1004.7 |
| 20260504185518 | 85 | 167 | 1.7 | 1.7 | 0.00 | 0.00 | 0.00 | 38 | 1005.2 |
| 20260504185015 | 86 | 96 | 2.6 | 2.6 | 0.00 | 0.00 | 0.00 | 37 | 1005.1 |
| 20260504184510 | 86 | 270 | 1.7 | 1.7 | 0.00 | 0.00 | 0.00 | 37 | 1004.9 |
| 20260504184006 | 85 | 216 | 1.7 | 1.7 | 0.00 | 0.00 | 0.00 | 39 | 1005.0 |
| 20260504183503 | 85 | 165 | 0.0 | 0.0 | 0.00 | 0.00 | 0.00 | 38 | 1005.3 |
| 20260504183001 | 85 | 272 | 3.5 | 4.3 | 0.00 | 0.00 | 0.00 | 39 | 1005.0 |
| 20260504182458 | 85 | 136 | 0.0 | 0.0 | 0.00 | 0.00 | 0.00 | 39 | 1005.3 |
| 20260504181955 | 84 | 139 | 0.0 | 0.0 | 0.00 | 0.00 | 0.00 | 40 | 1005.4 |
| 20260504181452 | 82 | 123 | 1.7 | 4.3 | 0.00 | 0.00 | 0.00 | 40 | 1005.5 |
| 20260504180951 | 82 | 8 | 2.6 | 4.3 | 0.00 | 0.00 | 0.00 | 40 | 1005.4 |
| 20260504180449 | 81 | 267 | 1.7 | 2.6 | 0.00 | 0.00 | 0.00 | 41 | 1005.5 |
| 20260504175947 | 81 | 273 | 0.9 | 1.7 | 0.00 | 0.00 | 0.00 | 42 | 1005.7 |
| 20260504175444 | 81 | 180 | 0.0 | 0.0 | 0.00 | 0.00 | 0.00 | 42 | 1005.5 |
| 20260504174941 | 81 | 110 | 0.0 | 0.0 | 0.00 | 0.00 | 0.00 | 44 | 1005.5 |
| 20260504174439 | 81 | 128 | 0.9 | 0.9 | 0.00 | 0.00 | 0.00 | 42 | 1005.6 |
| 20260504173936 | 80 | 150 | 0.0 | 0.0 | 0.00 | 0.00 | 0.00 | 44 | 1005.8 |
| 20260504173432 | 80 | 141 | 3.5 | 5.2 | 0.00 | 0.00 | 0.00 | 44 | 1005.6 |
| 20260504172930 | 79 | 157 | 0.9 | 1.7 | 0.00 | 0.00 | 0.00 | 45 | 1005.6 |
| 20260504172426 | 79 | 279 | 0.9 | 1.7 | 0.00 | 0.00 | 0.00 | 43 | 1006.0 |
| 20260504171923 | 81 | 208 | 2.6 | 2.6 | 0.00 | 0.00 | 0.00 | 44 | 1005.7 |
| 20260504171420 | 80 | 187 | 3.5 | 6.1 | 0.00 | 0.00 | 0.00 | 42 | 1005.8 |
| 20260504170917 | 80 | 259 | 2.6 | 2.6 | 0.00 | 0.00 | 0.00 | 44 | 1005.6 |
| 20260504170413 | 78 | 235 | 0.9 | 4.3 | 0.00 | 0.00 | 0.00 | 45 | 1005.5 |
| 20260504160332 | 74 | 137 | 3.5 | 5.2 | 0.00 | 0.00 | 0.00 | 50 | 1005.7 |
| 20260504150756 | 71 | 160 | 2.6 | 4.3 | 0.00 | 0.00 | 0.00 | 54 | 1005.8 |
| 20260504150253 | 71 | 339 | 3.5 | 6.1 | 0.00 | 0.00 | 0.00 | 54 | 1006.0 |
| 20260504141223 | 67 | 263 | 1.7 | 1.7 | 0.00 | 0.00 | 0.00 | 58 | 1006.3 |
| 20260504140720 | 67 | 243 | 4.3 | 5.2 | 0.00 | 0.00 | 0.00 | 58 | 1006.2 |
| 20260504140215 | 67 | 156 | 3.5 | 4.3 | 0.00 | 0.00 | 0.00 | 57 | 1006.0 |
| 20260504130644 | 61 | 119 | 0.9 | 0.9 | 0.00 | 0.00 | 0.00 | 65 | 1006.2 |
| 20260504130140 | 61 | 210 | 2.6 | 2.6 | 0.00 | 0.00 | 0.00 | 65 | 1006.2 |
| 20260504120104 | 60 | 218 | 1.7 | 1.7 | 0.00 | 0.00 | 0.00 | 65 | 1006.0 |
| 20260504110532 | 61 | 203 | 0.9 | 0.9 | 0.00 | 0.00 | 0.00 | 61 | 1006.3 |
| 20260504100448 | 63 | 141 | 1.7 | 1.7 | 0.00 | 0.00 | 0.00 | 57 | 1006.7 |
| 20260504081841 | 65 | 113 | 3.5 | 5.2 | 0.00 | 0.00 | 0.00 | 53 | 1007.6 |
| 20260504081338 | 65 | 204 | 3.5 | 6.1 | 0.00 | 0.00 | 0.00 | 53 | 1007.3 |
| 20260504080833 | 65 | 155 | 2.6 | 5.2 | 0.00 | 0.00 | 0.00 | 52 | 1007.5 |
| 20260504080331 | 65 | 169 | 1.7 | 4.3 | 0.00 | 0.00 | 0.00 | 52 | 1007.7 |
| 20260504070258 | 67 | 183 | 1.7 | 1.7 | 0.00 | 0.00 | 0.00 | 50 | 1008.4 |
| 20260504060219 | 69 | 183 | 3.5 | 6.1 | 0.00 | 0.00 | 0.00 | 47 | 1008.8 |
| 20260504050646 | 70 | 214 | 5.2 | 6.1 | 0.00 | 0.00 | 0.00 | 45 | 1008.9 |
| 20260504050143 | 70 | 276 | 6.1 | 11.3 | 0.00 | 0.00 | 0.00 | 45 | 1009.0 |
| 20260504045641 | 70 | 185 | 6.1 | 11.3 | 0.00 | 0.00 | 0.00 | 45 | 1008.9 |
| 20260504045140 | 70 | 217 | 3.5 | 5.2 | 0.00 | 0.00 | 0.00 | 44 | 1008.7 |
| 20260504044638 | 70 | 214 | 3.5 | 5.2 | 0.00 | 0.00 | 0.00 | 44 | 1008.9 |
| 20260504044135 | 70 | 158 | 4.3 | 6.1 | 0.00 | 0.00 | 0.00 | 44 | 1008.7 |
| 20260504043632 | 70 | 86 | 4.3 | 7.0 | 0.00 | 0.00 | 0.00 | 43 | 1008.7 |
| 20260504043129 | 70 | 96 | 4.3 | 6.1 | 0.00 | 0.00 | 0.00 | 43 | 1008.8 |
| 20260504042626 | 71 | 186 | 3.5 | 6.1 | 0.00 | 0.00 | 0.00 | 42 | 1008.7 |
| 20260504042123 | 71 | 172 | 3.5 | 5.2 | 0.00 | 0.00 | 0.00 | 42 | 1008.9 |
| 20260504041619 | 70 | 201 | 4.3 | 8.7 | 0.00 | 0.00 | 0.00 | 42 | 1009.1 |
| 20260504041115 | 70 | 157 | 3.5 | 7.0 | 0.00 | 0.00 | 0.00 | 41 | 1009.0 |
| 20260504040613 | 70 | 162 | 2.6 | 4.3 | 0.00 | 0.00 | 0.00 | 41 | 1009.0 |
| 20260504040109 | 70 | 197 | 2.6 | 4.3 | 0.00 | 0.00 | 0.00 | 41 | 1009.2 |
| 20260504035606 | 70 | 83 | 2.6 | 4.3 | 0.00 | 0.00 | 0.00 | 41 | 1009.0 |
| 20260504035102 | 70 | 203 | 1.7 | 1.7 | 0.00 | 0.00 | 0.00 | 41 | 1008.9 |
| 20260504034600 | 69 | 202 | 1.7 | 1.7 | 0.00 | 0.00 | 0.00 | 41 | 1009.1 |
| 20260504034057 | 69 | 197 | 2.6 | 2.6 | 0.00 | 0.00 | 0.00 | 41 | 1009.0 |
| 20260504033555 | 70 | 217 | 2.6 | 4.3 | 0.00 | 0.00 | 0.00 | 41 | 1009.0 |
| 20260504033052 | 70 | 151 | 1.7 | 1.7 | 0.00 | 0.00 | 0.00 | 40 | 1009.1 |
| 20260504032549 | 69 | 162 | 1.7 | 2.6 | 0.00 | 0.00 | 0.00 | 40 | 1009.0 |
| 20260504032046 | 69 | 132 | 2.6 | 2.6 | 0.00 | 0.00 | 0.00 | 41 | 1009.1 |
| 20260504031543 | 69 | 107 | 0.9 | 0.9 | 0.00 | 0.00 | 0.00 | 40 | 1009.0 |
| 20260504031039 | 69 | 117 | 0.9 | 1.7 | 0.00 | 0.00 | 0.00 | 40 | 1009.2 |
| 20260504030536 | 69 | 126 | 0.0 | 0.0 | 0.00 | 0.00 | 0.00 | 41 | 1009.2 |
| 20260504030032 | 70 | 158 | 0.9 | 0.9 | 0.00 | 0.00 | 0.00 | 40 | 1009.0 |
| 20260504025530 | 70 | 199 | 0.0 | 0.9 | 0.00 | 0.00 | 0.00 | 39 | 1008.9 |
| 20260504025026 | 70 | 112 | 0.0 | 0.0 | 0.00 | 0.00 | 0.00 | 39 | 1008.9 |
| 20260504024523 | 71 | 164 | 1.7 | 2.6 | 0.00 | 0.00 | 0.00 | 38 | 1008.9 |
| 20260504024020 | 71 | 119 | 0.0 | 0.0 | 0.00 | 0.00 | 0.00 | 38 | 1009.1 |
| 20260504023517 | 72 | 105 | 0.0 | 0.9 | 0.00 | 0.00 | 0.00 | 38 | 1009.0 |